Showing default

METEOR 3M, 27001

Orbit data source: Space-Track

METEOR 3M, 27001 is a Commonwealth of Independent States-origin payload satellite in SSO that was launched on Mon, 10 Dec 2001 UTC via a ZENIT-2 launch vehicle from the Tyuratam Missile And Space Complex (TTMTR). Payload-class satellites include a variety of spacecraft equipped with specific instruments for various scientific and technological missions. These include communications satellites like Starlink; space stations such as the ISS; scientific satellites like the Hubble; Earth observation satellites from companies like Planet Labs, Umbra, and HawkEye 360; GPS; miniature CubeSats for education and research; and military/defense satellites.

Loading next visibility...
Identifier
27001, 2001-056A
Orbit
SSO
Country
Flag of CISCIS
Related business
Manufacturer
VNIIEM
Mission
Civil Weather
Bus & Motor
METEOR-3, Unknown motor
Mass
2,476 kg wet, ~2,300 kg dry
Launch date (UTC)
2001-12-10 (24 years ago)
Launch vehicle
ZENIT-2
Launch site
Tyuratam Missile And Space Complex (TTMTR)
Object type
Payload
Rocket body
Debris
Shape & HBR
Cyl + 2 Pan, 7.0 m
Radar Cross Section
26.744 m², Large (>1 m²)

Expand to show TLE details & history
Last TLE update: 21 hours ago

TLE from 21 hours ago
0 METEOR 3M
1 27001U 01056A   25261.04902209 -.00000007  00000-0  46357-4 0  9991
2 27001  99.8170  77.5548 0013738 169.9414 299.2335 13.69020923187642
Epoch: 2025-09-18T01:10Z
TLE epoch observation values (Epoch: 2025-09-18T01:10:35.508Z)
Latitude
68.74415°
Longitude
-91.04443°
Altitude
1,009.959 km
Speed
7.355 km/s
True Right ascension
18h 55m 16s
True Declination
68° 37' 54"
Sunlit
Object was in daylight at epoch
Visualization orbit readout
Latitude
Unknown
Longitude
Unknown
Altitude
Unknown
Speed
Unknown
Apparent Right ascension
Unknown
Apparent Declination
Unknown
Sunlit
N/A
Visualization observer readout
Local Sidereal Time
14:41:14
Azimuth
Unknown
Elevation
Unknown
Doppler factor
Unknown
Orbital elements
Apogee altitude
1,010.507 km
Perigee altitude
990.234 km
Semi-major axis
7,378.507 km
Eccentricity
0.00137
Inclination
99.817°
RAAN
77.5548°
Arg. of periapsis
169.9414°
True anomaly
299.09601°
Mean anomaly
299.2335°
Eccentric anomaly
299.16477°
Mean motion
3.42445 °/min
Orbital period
105.13 mins
BSTAR
0.000046357
Loading maneuver chart data...
Computing Atmospheric mass density...
Loading historical data...
Loading historical data...
Loading historical data...
Loading historical data...
Loading historical data...
Loading historical data...
Loading historical data...

Documentation

Showing up to 5 results
|